Content
SEND FEEDBACK

Daily
Averages
Monthly
Summary
United States of America

YIGO, GUAM


Home > North America > United States > Guam
Elevation: 530 feet     Latitude: 13 32N     Longitude: 144 53E

WEATHER
 
SELECT A DAY
Number of Records: 209,379;   Date Range: 1/1/95 - 9/21/14
 
SHARE

PRINT THIS DATA

[ ← Previous Day ]
WEATHER ALMANAC - MARCH 6, 2014
[ Next Day → ]
[ °C ]   °F
Weather ElementAverageHighLow
Temperature79 °F84.9 °F (11:54 am)73 °F (3:54 am)
Dewpoint69.1 °F71.6 °F (8:36 am)66 °F (5:54 am)
Humidity72.3 %87 % (2:54 am)55 % (3:54 pm)
Barometer29.80 in29.85 in (8:44 am)29.74 in (2:54 pm)
Wind Speed10.9 mph18.4 mph (12:54 pm)
Wind Gust24.2 mph (10:54 am)
Weather ElementAverage
Visibility10 mi
Wind DirectionESE (128.8 °)

Weather ElementTotal
Precipitation---
Cooling Degree Days14 (Base 65)
Growing Degree Days29 (Base 50)
Averaged from 26 records on March 6, 2014
WEATHER CONDITIONS BREAKOUT
WIND DIRECTION BREAKOUT
WEATHER BY HOUR - MARCH 6, 2014
[ °C ]   °F
Local TimeTemperatureDewpointHumidityBarometerVisibilityWind DirectionWind SpeedGust SpeedPrecipitationEventsConditions
1:54 AM75.9 °F71.1 °F85 %29.77 in10.0 miNorth (350°)12.7 mph19.6 mph0.00 inRainLight Rain
2:54 AM75.0 °F71.1 °F87 %29.76 in10.0 miNorth (10°)9.2 mph0.00 inClear
3:54 AM73.0 °F69.1 °F87 %29.76 in10.0 miNNE (30°)5.8 mphClear
4:54 AM73.9 °F69.1 °F85 %29.76 in10.0 miNNE (20°)5.8 mphPartly Cloudy
5:54 AM75.0 °F66.0 °F73 %29.77 in10.0 miNorth (10°)10.4 mph21.9 mphScattered Clouds
6:54 AM75.9 °F70.0 °F82 %29.80 in10.0 miNorth (10°)8.1 mphPartly Cloudy
7:54 AM78.1 °F71.1 °F79 %29.82 in10.0 miNNE (20°)10.4 mph0.00 inMostly Cloudy
8:36 AM80.6 °F71.6 °F74 %29.84 in10.0 miNorth (10°)15.0 mph19.6 mph0.00 inRainLight Rain
8:44 AM80.6 °F69.8 °F70 %29.85 in10.0 miNorth (360°)12.7 mph0.00 inRainLight Rain
8:54 AM81.0 °F70.0 °F69 %29.83 in10.0 miNorth (10°)12.7 mph23.0 mph0.00 inMostly Cloudy
9:54 AM82.9 °F69.1 °F63 %29.83 in10.0 miNorth (360°)13.8 mphPartly Cloudy
10:54 AM84.0 °F69.1 °F61 %29.82 in10.0 miNorth (360°)16.1 mph24.2 mphPartly Cloudy
11:54 AM84.9 °F70.0 °F61 %29.79 in10.0 miNorth (360°)15.0 mph23.0 mphClear
12:54 PM84.9 °F70.0 °F61 %29.78 in10.0 miNorth (350°)18.4 mphPartly Cloudy
1:54 PM84.9 °F70.0 °F61 %29.76 in10.0 miNorth (360°)18.4 mphMostly Cloudy
2:54 PM84.9 °F68.0 °F57 %29.74 in10.0 miNorth (350°)17.3 mphMostly Cloudy
3:54 PM84.0 °F66.0 °F55 %29.74 in10.0 miNNE (20°)11.5 mph20.7 mphMostly Cloudy
4:54 PM81.0 °F68.0 °F65 %29.76 in10.0 miNNE (20°)13.8 mphClear
5:54 PM80.1 °F66.9 °F64 %29.78 in10.0 miNNE (30°)12.7 mphClear
6:54 PM78.1 °F68.0 °F71 %29.79 in10.0 miNorth (10°)8.1 mphClear
7:54 PM78.1 °F69.1 °F74 %29.82 in10.0 miENE (60°)3.5 mphPartly Cloudy
8:44 PM77.0 °F69.8 °F78 %29.85 in10.0 miENE (60°)6.9 mphScattered Clouds
8:54 PM77.0 °F69.1 °F76 %29.83 in10.0 miNE (50°)6.9 mphPartly Cloudy
9:54 PM75.0 °F68.0 °F79 %29.84 in10.0 miNE (40°)4.6 mphClear
10:54 PM73.9 °F68.0 °F82 %29.84 in10.0 miNE (40°)6.9 mphClear
11:54 PM73.9 °F68.0 °F82 %29.83 in10.0 miNE (50°)6.9 mphClear
Hourly data recorded from PGUM, located miles away from Yigo, Guam







STORIES FROM OUR PARTNERS